WXM80 ListenWXM80 Stop

You find our weather info also at:

UK Metoffice

WeatherCloud

Weather Underground

Northeastern Weather Network

AWEKAS

Citizen Weather Observer Program (CWOP)

HAMweather, WeatherForYou, PWS Weather


Weather Underground History page Text

Daily Summary for October 30, 2017 Units:  Both    English   Metric
« Previous Day
Next Day »
Daily Weekly Monthly Yearly Custom
  High: Low: Average:
Temperature: 65.6 °F /  18.7 °C 47.9 °F /  8.8 °C 54.9 °F /  12.7 °C
Dew Point: 64.4 °F /  18 °C 39.6 °F /  4.2 °C 47.9 °F /  8.8 °C
Humidity: 97 % 57 % 78 %
Wind Speed: 13.0 mph /  20.9 km/h - 4.8 mph /  7.7 km/h
Wind Gust: 31.1 mph /  50 km/h - -
Wind:- - WSW
Pressure: 29.89 in /  1012.1 hPa 28.98 in /  981.3 hPa -
Precipitation: 0.68 in /  17.27 mm    
Historical Graphs
 
 
Tabular Data for October 30, 2017
Time Temperature Dew Point Pressure Wind Wind Speed Wind Gust Humidity Rainfall Rate (Hourly)
00:01 65.6 °F /  18.7 °C 64.4 °F /  18 °C 28.99 in /  981.6 hPa SSW 2.7 mph /  4.3 km/h 7.0 mph /  11.3 km/h 96 % 0.05 in /  1.27 mm
00:06 65.4 °F /  18.6 °C 63.9 °F /  17.7 °C 29.01 in /  982.3 hPa South 11.0 mph /  17.7 km/h 12.7 mph /  20.4 km/h 95 % 0.05 in /  1.27 mm
00:11 65.2 °F /  18.4 °C 63.7 °F /  17.6 °C 29.01 in /  982.3 hPa SW 6.7 mph /  10.8 km/h 12.7 mph /  20.4 km/h 95 % 0.06 in /  1.52 mm
00:16 65.0 °F /  18.3 °C 63.2 °F /  17.3 °C 29.02 in /  982.6 hPa SSW 4.6 mph /  7.4 km/h 16.1 mph /  25.9 km/h 94 % 0.05 in /  1.27 mm
00:21 64.8 °F /  18.2 °C 63.0 °F /  17.2 °C 29.03 in /  983 hPa SW 3.1 mph /  5 km/h 10.0 mph /  16.1 km/h 94 % 0.06 in /  1.52 mm
00:26 64.7 °F /  18.2 °C 62.9 °F /  17.2 °C 28.98 in /  981.3 hPa SW 2.2 mph /  3.5 km/h 6.0 mph /  9.7 km/h 94 % 0.05 in /  1.27 mm
00:31 64.5 °F /  18.1 °C 62.7 °F /  17.1 °C 29.03 in /  983 hPa WSW 5.3 mph /  8.5 km/h 17.3 mph /  27.8 km/h 94 % 0.06 in /  1.52 mm
00:36 64.3 °F /  17.9 °C 62.5 °F /  16.9 °C 28.98 in /  981.3 hPa SSW 3.5 mph /  5.6 km/h 11.5 mph /  18.5 km/h 94 % 0.05 in /  1.27 mm
00:41 64.1 °F /  17.8 °C 62.3 °F /  16.8 °C 28.99 in /  981.6 hPa SSW 2.0 mph /  3.2 km/h 3.5 mph /  5.6 km/h 94 % 0.06 in /  1.52 mm
00:46 63.8 °F /  17.7 °C 62.0 °F /  16.7 °C 29.03 in /  983 hPa SSW 3.5 mph /  5.6 km/h 6.9 mph /  11.1 km/h 94 % 0.05 in /  1.27 mm
00:51 63.6 °F /  17.6 °C 61.5 °F /  16.4 °C 29.00 in /  981.9 hPa West 3.3 mph /  5.3 km/h 4.0 mph /  6.4 km/h 93 % 0.06 in /  1.52 mm
00:56 63.4 °F /  17.4 °C 61.3 °F /  16.3 °C 29.03 in /  983 hPa SW 3.7 mph /  6 km/h 5.8 mph /  9.3 km/h 93 % 0.06 in /  1.52 mm
01:01 63.1 °F /  17.3 °C 61.0 °F /  16.1 °C 29.01 in /  982.3 hPa WSW 5.0 mph /  8 km/h 6.9 mph /  11.1 km/h 93 % 0.06 in /  1.52 mm
01:06 62.9 °F /  17.2 °C 60.8 °F /  16 °C 29.02 in /  982.6 hPa SW 5.2 mph /  8.4 km/h 10.4 mph /  16.7 km/h 93 % 0.07 in /  1.78 mm
01:11 62.7 °F /  17.1 °C 60.6 °F /  15.9 °C 29.06 in /  984 hPa WSW 1.7 mph /  2.7 km/h 3.5 mph /  5.6 km/h 93 % 0.07 in /  1.78 mm
01:16 62.6 °F /  17 °C 60.5 °F /  15.8 °C 29.06 in /  984 hPa West 1.5 mph /  2.4 km/h 2.3 mph /  3.7 km/h 93 % 0.07 in /  1.78 mm
01:22 62.5 °F /  16.9 °C 60.4 °F /  15.8 °C 29.05 in /  983.6 hPa WSW 0.3 mph /  0.5 km/h 1.2 mph /  1.9 km/h 93 % 0.06 in /  1.52 mm
01:27 62.3 °F /  16.8 °C 60.2 °F /  15.7 °C 29.05 in /  983.6 hPa WSW 0.8 mph /  1.3 km/h 3.5 mph /  5.6 km/h 93 % 0.07 in /  1.78 mm
01:32 62.2 °F /  16.8 °C 60.2 °F /  15.7 °C 29.02 in /  982.6 hPa Calm   1.2 mph /  1.9 km/h 93 % 0.07 in /  1.78 mm
01:37 62.1 °F /  16.7 °C 60.1 °F /  15.6 °C 29.06 in /  984 hPa WSW 0.1 mph /  0.2 km/h 2.3 mph /  3.7 km/h 93 % 0.06 in /  1.52 mm
01:42 61.9 °F /  16.6 °C 59.9 °F /  15.5 °C 29.06 in /  984 hPa Calm   1.2 mph /  1.9 km/h 93 % 0.06 in /  1.52 mm
01:47 61.7 °F /  16.5 °C 59.7 °F /  15.4 °C 29.06 in /  984 hPa Calm     93 % 0.06 in /  1.52 mm
01:52 61.6 °F /  16.4 °C 59.6 °F /  15.3 °C 29.07 in /  984.3 hPa WSW 0.3 mph /  0.5 km/h 3.5 mph /  5.6 km/h 93 % 0.07 in /  1.78 mm
02:02 61.2 °F /  16.2 °C 59.2 °F /  15.1 °C 29.03 in /  983 hPa Calm     93 % 0.07 in /  1.78 mm
02:07 61.1 °F /  16.2 °C 59.1 °F /  15.1 °C 29.07 in /  984.3 hPa WSW 0.1 mph /  0.2 km/h   93 % 0.06 in /  1.52 mm
02:12 61.0 °F /  16.1 °C 59.3 °F /  15.2 °C 29.04 in /  983.3 hPa WSW 0.3 mph /  0.5 km/h 1.0 mph /  1.6 km/h 94 % 0.06 in /  1.52 mm
02:17 61.0 °F /  16.1 °C 59.3 °F /  15.2 °C 29.04 in /  983.3 hPa Calm     94 % 0.06 in /  1.52 mm
02:22 60.9 °F /  16.1 °C 59.5 °F /  15.3 °C 29.04 in /  983.3 hPa WSW 0.1 mph /  0.2 km/h   95 % 0.06 in /  1.52 mm
02:27 60.9 °F /  16.1 °C 59.5 °F /  15.3 °C 29.05 in /  983.6 hPa WSW 0.7 mph /  1.1 km/h 2.3 mph /  3.7 km/h 95 % 0.06 in /  1.52 mm
02:32 60.9 °F /  16.1 °C 59.5 °F /  15.3 °C 29.04 in /  983.3 hPa WSW 0.2 mph /  0.3 km/h 3.5 mph /  5.6 km/h 95 % 0.05 in /  1.27 mm
02:38 60.8 °F /  16 °C 59.4 °F /  15.2 °C 29.03 in /  983 hPa SW 1.9 mph /  3.1 km/h 3.5 mph /  5.6 km/h 95 % 0.06 in /  1.52 mm
02:43 60.8 °F /  16 °C 59.4 °F /  15.2 °C 29.08 in /  984.6 hPa Calm   2.3 mph /  3.7 km/h 95 % 0.05 in /  1.27 mm
02:48 60.8 °F /  16 °C 59.4 °F /  15.2 °C 29.08 in /  984.6 hPa Calm   1.2 mph /  1.9 km/h 95 % 0.05 in /  1.27 mm
02:53 60.8 °F /  16 °C 59.4 °F /  15.2 °C 29.08 in /  984.6 hPa SSE 0.3 mph /  0.5 km/h 5.8 mph /  9.3 km/h 95 % 0.05 in /  1.27 mm
02:58 60.7 °F /  15.9 °C 59.3 °F /  15.2 °C 29.09 in /  985 hPa Calm     95 % 0.05 in /  1.27 mm
03:03 60.7 °F /  15.9 °C 59.3 °F /  15.2 °C 29.08 in /  984.6 hPa Calm     95 % 0.04 in /  1.02 mm
03:08 60.7 °F /  15.9 °C 59.3 °F /  15.2 °C 29.08 in /  984.6 hPa Calm     95 % 0.05 in /  1.27 mm
03:13 60.7 °F /  15.9 °C 59.3 °F /  15.2 °C 29.08 in /  984.6 hPa Calm     95 % 0.04 in /  1.02 mm
03:18 60.6 °F /  15.9 °C 59.2 °F /  15.1 °C 29.08 in /  984.6 hPa Calm   1.2 mph /  1.9 km/h 95 % 0.05 in /  1.27 mm
03:23 60.5 °F /  15.8 °C 59.1 °F /  15.1 °C 29.08 in /  984.6 hPa Calm     95 % 0.05 in /  1.27 mm
03:28 60.5 °F /  15.8 °C 59.4 °F /  15.2 °C 29.08 in /  984.6 hPa Calm     96 % 0.04 in /  1.02 mm
03:33 60.5 °F /  15.8 °C 59.4 °F /  15.2 °C 29.08 in /  984.6 hPa Calm     96 % 0.05 in /  1.27 mm
03:38 60.4 °F /  15.8 °C 59.3 °F /  15.2 °C 29.08 in /  984.6 hPa Calm     96 % 0.04 in /  1.02 mm
03:43 60.4 °F /  15.8 °C 59.3 °F /  15.2 °C 29.08 in /  984.6 hPa Calm     96 % 0.04 in /  1.02 mm
03:48 60.4 °F /  15.8 °C 59.3 °F /  15.2 °C 29.07 in /  984.3 hPa Calm     96 % 0.05 in /  1.27 mm
03:53 60.4 °F /  15.8 °C 59.3 °F /  15.2 °C 29.07 in /  984.3 hPa Calm     96 % 0.04 in /  1.02 mm
03:59 60.4 °F /  15.8 °C 59.3 °F /  15.2 °C 29.07 in /  984.3 hPa Calm   1.2 mph /  1.9 km/h 96 % 0.05 in /  1.27 mm
04:04 60.3 °F /  15.7 °C 59.2 °F /  15.1 °C 29.07 in /  984.3 hPa SSE 0.2 mph /  0.3 km/h 1.0 mph /  1.6 km/h 96 % 0.05 in /  1.27 mm
04:09 60.3 °F /  15.7 °C 59.2 °F /  15.1 °C 29.07 in /  984.3 hPa Calm     96 % 0.04 in /  1.02 mm
04:14 60.2 °F /  15.7 °C 59.1 °F /  15.1 °C 29.06 in /  984 hPa Calm     96 % 0.05 in /  1.27 mm
04:19 60.2 °F /  15.7 °C 59.1 °F /  15.1 °C 29.06 in /  984 hPa Calm     96 % 0.04 in /  1.02 mm
04:24 60.2 °F /  15.7 °C 59.1 °F /  15.1 °C 29.06 in /  984 hPa SSE 1.6 mph /  2.6 km/h 3.5 mph /  5.6 km/h 96 % 0.04 in /  1.02 mm
04:29 60.2 °F /  15.7 °C 59.1 °F /  15.1 °C 29.06 in /  984 hPa SSE 1.5 mph /  2.4 km/h 3.5 mph /  5.6 km/h 96 % 0.05 in /  1.27 mm
04:34 60.2 °F /  15.7 °C 59.1 °F /  15.1 °C 29.05 in /  983.6 hPa SSE 1.3 mph /  2.1 km/h 3.5 mph /  5.6 km/h 96 % 0.04 in /  1.02 mm
04:39 60.3 °F /  15.7 °C 59.2 °F /  15.1 °C 29.05 in /  983.6 hPa Calm     96 % 0.04 in /  1.02 mm
04:44 60.3 °F /  15.7 °C 59.2 °F /  15.1 °C 29.05 in /  983.6 hPa SSE 0.1 mph /  0.2 km/h 1.2 mph /  1.9 km/h 96 % 0.04 in /  1.02 mm
04:49 60.4 °F /  15.8 °C 59.5 °F /  15.3 °C 29.05 in /  983.6 hPa SE 1.4 mph /  2.3 km/h 5.8 mph /  9.3 km/h 97 % 0.04 in /  1.02 mm
04:54 60.5 °F /  15.8 °C 59.6 °F /  15.3 °C 29.04 in /  983.3 hPa SE 0.3 mph /  0.5 km/h 2.3 mph /  3.7 km/h 97 % 0.04 in /  1.02 mm
04:59 60.6 °F /  15.9 °C 59.7 °F /  15.4 °C 29.04 in /  983.3 hPa SE 0.4 mph /  0.6 km/h 4.0 mph /  6.4 km/h 97 % 0.03 in /  0.76 mm
05:04 60.7 °F /  15.9 °C 59.8 °F /  15.4 °C 29.03 in /  983 hPa SE 0.8 mph /  1.3 km/h 3.5 mph /  5.6 km/h 97 % 0.03 in /  0.76 mm
05:10 60.8 °F /  16 °C 59.9 °F /  15.5 °C 29.03 in /  983 hPa SE 0.8 mph /  1.3 km/h 2.3 mph /  3.7 km/h 97 % 0.03 in /  0.76 mm
05:15 60.9 °F /  16.1 °C 60.0 °F /  15.6 °C 29.02 in /  982.6 hPa East 6.0 mph /  9.7 km/h 8.1 mph /  13 km/h 97 % 0.02 in /  0.51 mm
05:20 61.1 °F /  16.2 °C 60.2 °F /  15.7 °C 29.02 in /  982.6 hPa SE 2.6 mph /  4.2 km/h 11.5 mph /  18.5 km/h 97 % 0.03 in /  0.76 mm
05:25 61.3 °F /  16.3 °C 60.4 °F /  15.8 °C 29.02 in /  982.6 hPa South 7.2 mph /  11.6 km/h 16.1 mph /  25.9 km/h 97 % 0.03 in /  0.76 mm
05:30 61.3 °F /  16.3 °C 60.4 °F /  15.8 °C 29.02 in /  982.6 hPa South 6.0 mph /  9.7 km/h 11.5 mph /  18.5 km/h 97 % 0.02 in /  0.51 mm
05:35 61.2 °F /  16.2 °C 60.3 °F /  15.7 °C 29.02 in /  982.6 hPa SSW 2.1 mph /  3.4 km/h 4.0 mph /  6.4 km/h 97 % 0.02 in /  0.51 mm
05:40 61.1 °F /  16.2 °C 60.0 °F /  15.6 °C 29.03 in /  983 hPa South 2.0 mph /  3.2 km/h 5.8 mph /  9.3 km/h 96 % 0.03 in /  0.76 mm
05:45 60.9 °F /  16.1 °C 59.8 °F /  15.4 °C 29.04 in /  983.3 hPa WSW 6.9 mph /  11.1 km/h 19.6 mph /  31.5 km/h 96 % 0.02 in /  0.51 mm
05:50 60.4 °F /  15.8 °C 59.0 °F /  15 °C 29.05 in /  983.6 hPa WSW 4.0 mph /  6.4 km/h 6.0 mph /  9.7 km/h 95 % 0.02 in /  0.51 mm
05:55 59.9 °F /  15.5 °C 58.2 °F /  14.6 °C 29.05 in /  983.6 hPa South 2.4 mph /  3.9 km/h 9.2 mph /  14.8 km/h 94 % 0.03 in /  0.76 mm
06:00 59.4 °F /  15.2 °C 57.4 °F /  14.1 °C 29.06 in /  984 hPa WSW 5.6 mph /  9 km/h 11.5 mph /  18.5 km/h 93 % 0.03 in /  0.76 mm
06:05 58.9 °F /  14.9 °C 56.6 °F /  13.7 °C 29.07 in /  984.3 hPa WSW 8.4 mph /  13.5 km/h 19.0 mph /  30.6 km/h 92 % 0.03 in /  0.76 mm
06:10 58.2 °F /  14.6 °C 55.6 °F /  13.1 °C 29.07 in /  984.3 hPa NW 9.7 mph /  15.6 km/h 14.0 mph /  22.5 km/h 91 % 0.04 in /  1.02 mm
06:15 57.4 °F /  14.1 °C 54.8 °F /  12.7 °C 29.08 in /  984.6 hPa WNW 8.2 mph /  13.2 km/h 12.0 mph /  19.3 km/h 91 % 0.04 in /  1.02 mm
06:21 56.6 °F /  13.7 °C 53.7 °F /  12.1 °C 29.08 in /  984.6 hPa WSW 6.5 mph /  10.5 km/h 12.7 mph /  20.4 km/h 90 % 0.03 in /  0.76 mm
06:26 55.9 °F /  13.3 °C 53.3 °F /  11.8 °C 29.09 in /  985 hPa NW 8.7 mph /  14 km/h 20.7 mph /  33.3 km/h 91 % 0.04 in /  1.02 mm
06:31 55.1 °F /  12.8 °C 52.2 °F /  11.2 °C 29.10 in /  985.3 hPa SSW 5.3 mph /  8.5 km/h 19.6 mph /  31.5 km/h 90 % 0.04 in /  1.02 mm
06:36 54.6 °F /  12.6 °C 52.0 °F /  11.1 °C 29.11 in /  985.7 hPa WNW 3.3 mph /  5.3 km/h 9.2 mph /  14.8 km/h 91 % 0.03 in /  0.76 mm
06:41 54.3 °F /  12.4 °C 52.0 °F /  11.1 °C 29.11 in /  985.7 hPa SSW 8.6 mph /  13.8 km/h 12.7 mph /  20.4 km/h 92 % 0.04 in /  1.02 mm
06:46 53.8 °F /  12.1 °C 51.2 °F /  10.7 °C 29.13 in /  986.3 hPa WSW 6.8 mph /  10.9 km/h 15.0 mph /  24.1 km/h 91 % 0.04 in /  1.02 mm
06:51 53.5 °F /  11.9 °C 51.2 °F /  10.7 °C 29.13 in /  986.3 hPa WSW 5.6 mph /  9 km/h 7.0 mph /  11.3 km/h 92 % 0.04 in /  1.02 mm
06:56 53.1 °F /  11.7 °C 50.8 °F /  10.4 °C 29.14 in /  986.7 hPa WSW 9.2 mph /  14.8 km/h 16.1 mph /  25.9 km/h 92 % 0.03 in /  0.76 mm
07:01 52.8 °F /  11.6 °C 50.8 °F /  10.4 °C 29.15 in /  987 hPa WNW 5.8 mph /  9.3 km/h 16.1 mph /  25.9 km/h 93 % 0.04 in /  1.02 mm
07:06 52.6 °F /  11.4 °C 50.6 °F /  10.3 °C 29.16 in /  987.4 hPa SW 9.0 mph /  14.5 km/h 14.0 mph /  22.5 km/h 93 % 0.04 in /  1.02 mm
07:11 52.3 °F /  11.3 °C 50.3 °F /  10.2 °C 29.17 in /  987.7 hPa WSW 9.7 mph /  15.6 km/h 11.5 mph /  18.5 km/h 93 % 0.03 in /  0.76 mm
07:16 52.1 °F /  11.2 °C 50.4 °F /  10.2 °C 29.17 in /  987.7 hPa West 7.0 mph /  11.3 km/h 18.4 mph /  29.6 km/h 94 % 0.04 in /  1.02 mm
07:22 51.8 °F /  11 °C 50.1 °F /  10.1 °C 29.18 in /  988 hPa West 8.4 mph /  13.5 km/h 13.8 mph /  22.2 km/h 94 % 0.04 in /  1.02 mm
07:27 51.6 °F /  10.9 °C 49.9 °F /  9.9 °C 29.19 in /  988.4 hPa SW 7.2 mph /  11.6 km/h 21.9 mph /  35.2 km/h 94 % 0.03 in /  0.76 mm
07:32 51.5 °F /  10.8 °C 49.8 °F /  9.9 °C 29.20 in /  988.7 hPa SSW 4.8 mph /  7.7 km/h 12.7 mph /  20.4 km/h 94 % 0.03 in /  0.76 mm
07:37 51.3 °F /  10.7 °C 49.6 °F /  9.8 °C 29.20 in /  988.7 hPa WNW 8.1 mph /  13 km/h 13.8 mph /  22.2 km/h 94 % 0.03 in /  0.76 mm
07:42 51.2 °F /  10.7 °C 49.8 °F /  9.9 °C 29.21 in /  989.1 hPa WNW 4.0 mph /  6.4 km/h 11.5 mph /  18.5 km/h 95 % 0.03 in /  0.76 mm
07:47 51.0 °F /  10.6 °C 49.3 °F /  9.6 °C 29.21 in /  989.1 hPa NW 8.6 mph /  13.8 km/h 12.7 mph /  20.4 km/h 94 % 0.03 in /  0.76 mm
07:52 50.8 °F /  10.4 °C 49.1 °F /  9.5 °C 29.22 in /  989.4 hPa WNW 3.8 mph /  6.1 km/h 10.4 mph /  16.7 km/h 94 % 0.03 in /  0.76 mm
07:57 50.7 °F /  10.4 °C 49.3 °F /  9.6 °C 29.23 in /  989.7 hPa SSW 8.1 mph /  13 km/h 11.5 mph /  18.5 km/h 95 % 0.02 in /  0.51 mm
08:02 50.5 °F /  10.3 °C 49.1 °F /  9.5 °C 29.24 in /  990.1 hPa West 8.6 mph /  13.8 km/h 17.3 mph /  27.8 km/h 95 % 0.03 in /  0.76 mm
08:07 50.2 °F /  10.1 °C 48.5 °F /  9.2 °C 29.25 in /  990.4 hPa WNW 8.9 mph /  14.3 km/h 19.6 mph /  31.5 km/h 94 % 0.03 in /  0.76 mm
08:12 49.9 °F /  9.9 °C 48.2 °F /  9 °C 29.25 in /  990.4 hPa SSW 8.2 mph /  13.2 km/h 19.6 mph /  31.5 km/h 94 % 0.03 in /  0.76 mm
08:17 49.6 °F /  9.8 °C 47.9 °F /  8.8 °C 29.26 in /  990.7 hPa WSW 11.8 mph /  19 km/h 18.4 mph /  29.6 km/h 94 % 0.02 in /  0.51 mm
08:22 49.4 °F /  9.7 °C 47.5 °F /  8.6 °C 29.27 in /  991.1 hPa West 13.0 mph /  20.9 km/h 31.1 mph /  50 km/h 93 % 0.02 in /  0.51 mm
08:27 49.0 °F /  9.4 °C 46.8 °F /  8.2 °C 29.27 in /  991.1 hPa WSW 8.4 mph /  13.5 km/h 12.7 mph /  20.4 km/h 92 % 0.02 in /  0.51 mm
08:32 48.9 °F /  9.4 °C 46.7 °F /  8.2 °C 29.28 in /  991.4 hPa WNW 8.2 mph /  13.2 km/h 16.1 mph /  25.9 km/h 92 % 0.03 in /  0.76 mm
08:37 48.9 °F /  9.4 °C 46.7 °F /  8.2 °C 29.29 in /  991.8 hPa SW 11.4 mph /  18.3 km/h 19.6 mph /  31.5 km/h 92 % 0.03 in /  0.76 mm
08:42 48.8 °F /  9.3 °C 46.3 °F /  7.9 °C 29.30 in /  992.1 hPa West 9.3 mph /  15 km/h 15.0 mph /  24.1 km/h 91 % 0.02 in /  0.51 mm
08:47 48.7 °F /  9.3 °C 46.2 °F /  7.9 °C 29.31 in /  992.4 hPa WNW 12.8 mph /  20.6 km/h 25.3 mph /  40.7 km/h 91 % 0.02 in /  0.51 mm
08:52 48.7 °F /  9.3 °C 46.2 °F /  7.9 °C 29.31 in /  992.4 hPa SSW 9.1 mph /  14.6 km/h 15.0 mph /  24.1 km/h 91 % 0.03 in /  0.76 mm
08:58 48.7 °F /  9.3 °C 46.2 °F /  7.9 °C 29.33 in /  993.1 hPa WNW 8.8 mph /  14.2 km/h 16.0 mph /  25.7 km/h 91 % 0.03 in /  0.76 mm
09:03 48.5 °F /  9.2 °C 46.0 °F /  7.8 °C 29.33 in /  993.1 hPa WNW 11.9 mph /  19.2 km/h 19.6 mph /  31.5 km/h 91 % 0.02 in /  0.51 mm
09:08 48.3 °F /  9.1 °C 45.8 °F /  7.7 °C 29.35 in /  993.8 hPa SW 10.8 mph /  17.4 km/h 16.1 mph /  25.9 km/h 91 % 0.02 in /  0.51 mm
09:13 48.1 °F /  8.9 °C 45.3 °F /  7.4 °C 29.35 in /  993.8 hPa NNW 9.9 mph /  15.9 km/h 20.7 mph /  33.3 km/h 90 % 0.02 in /  0.51 mm
09:18 48.0 °F /  8.9 °C 45.5 °F /  7.5 °C 29.35 in /  993.8 hPa SW 6.2 mph /  10 km/h 10.4 mph /  16.7 km/h 91 % 0.03 in /  0.76 mm
09:23 47.9 °F /  8.8 °C 45.1 °F /  7.3 °C 29.36 in /  994.1 hPa NW 12.5 mph /  20.1 km/h 22.0 mph /  35.4 km/h 90 % 0.03 in /  0.76 mm
09:28 47.9 °F /  8.8 °C 44.8 °F /  7.1 °C 29.36 in /  994.1 hPa West 11.0 mph /  17.7 km/h 18.4 mph /  29.6 km/h 89 % 0.02 in /  0.51 mm
09:33 48.0 °F /  8.9 °C 44.9 °F /  7.2 °C 29.37 in /  994.5 hPa WSW 11.1 mph /  17.9 km/h 18.4 mph /  29.6 km/h 89 % 0.03 in /  0.76 mm
09:38 48.1 °F /  8.9 °C 44.4 °F /  6.9 °C 29.38 in /  994.8 hPa West 12.4 mph /  20 km/h 20.7 mph /  33.3 km/h 87 % 0.03 in /  0.76 mm
09:43 48.4 °F /  9.1 °C 44.7 °F /  7.1 °C 29.38 in /  994.8 hPa WSW 9.6 mph /  15.4 km/h 16.1 mph /  25.9 km/h 87 % 0.03 in /  0.76 mm
09:48 48.7 °F /  9.3 °C 44.7 °F /  7.1 °C 29.39 in /  995.1 hPa WSW 10.4 mph /  16.7 km/h 25.3 mph /  40.7 km/h 86 % 0.03 in /  0.76 mm
09:58 49.2 °F /  9.6 °C 44.9 °F /  7.2 °C 29.40 in /  995.5 hPa West 4.3 mph /  6.9 km/h 12.7 mph /  20.4 km/h 85 % 0.03 in /  0.76 mm
10:03 49.5 °F /  9.7 °C 45.5 °F /  7.5 °C 29.41 in /  995.8 hPa North 6.1 mph /  9.8 km/h 15.0 mph /  24.1 km/h 86 % 0.03 in /  0.76 mm
10:08 49.8 °F /  9.9 °C 45.5 °F /  7.5 °C 29.41 in /  995.8 hPa SW 5.9 mph /  9.5 km/h 12.7 mph /  20.4 km/h 85 % 0.03 in /  0.76 mm
10:14 50.0 °F /  10 °C 45.4 °F /  7.4 °C 29.42 in /  996.2 hPa WNW 7.5 mph /  12.1 km/h 16.1 mph /  25.9 km/h 84 % 0.04 in /  1.02 mm
10:24 50.3 °F /  10.2 °C 44.7 °F /  7.1 °C 29.43 in /  996.5 hPa West 12.3 mph /  19.8 km/h 21.9 mph /  35.2 km/h 81 % 0.03 in /  0.76 mm
10:29 50.5 °F /  10.3 °C 44.6 °F /  7 °C 29.44 in /  996.8 hPa WSW 7.7 mph /  12.4 km/h 17.3 mph /  27.8 km/h 80 % 0.04 in /  1.02 mm
10:34 50.9 °F /  10.5 °C 45.3 °F /  7.4 °C 29.43 in /  996.5 hPa West 6.8 mph /  10.9 km/h 17.3 mph /  27.8 km/h 81 % 0.03 in /  0.76 mm
10:39 51.3 °F /  10.7 °C 45.7 °F /  7.6 °C 29.44 in /  996.8 hPa WNW 4.7 mph /  7.6 km/h 7.0 mph /  11.3 km/h 81 % 0.03 in /  0.76 mm
10:44 51.4 °F /  10.8 °C 45.1 °F /  7.3 °C 29.44 in /  996.8 hPa WSW 10.4 mph /  16.7 km/h 17.3 mph /  27.8 km/h 79 % 0.03 in /  0.76 mm
10:49 51.6 °F /  10.9 °C 45.0 °F /  7.2 °C 29.44 in /  996.8 hPa NW 10.3 mph /  16.6 km/h 19.6 mph /  31.5 km/h 78 % 0.04 in /  1.02 mm
10:54 51.8 °F /  11 °C 45.2 °F /  7.3 °C 29.45 in /  997.2 hPa West 11.3 mph /  18.2 km/h 18.4 mph /  29.6 km/h 78 % 0.03 in /  0.76 mm
10:59 52.1 °F /  11.2 °C 45.1 °F /  7.3 °C 29.46 in /  997.5 hPa West 8.0 mph /  12.9 km/h 17.3 mph /  27.8 km/h 77 % 0.03 in /  0.76 mm
11:04 52.5 °F /  11.4 °C 45.2 °F /  7.3 °C 29.46 in /  997.5 hPa WSW 6.9 mph /  11.1 km/h 16.1 mph /  25.9 km/h 76 % 0.03 in /  0.76 mm
11:09 52.8 °F /  11.6 °C 45.1 °F /  7.3 °C 29.46 in /  997.5 hPa WSW 3.0 mph /  4.8 km/h 11.5 mph /  18.5 km/h 75 % 0.02 in /  0.51 mm
11:14 53.0 °F /  11.7 °C 45.6 °F /  7.6 °C 29.47 in /  997.9 hPa West 8.5 mph /  13.7 km/h 18.4 mph /  29.6 km/h 76 % 0.03 in /  0.76 mm
11:19 53.2 °F /  11.8 °C 45.1 °F /  7.3 °C 29.49 in /  998.5 hPa WNW 8.1 mph /  13 km/h 17.3 mph /  27.8 km/h 74 % 0.03 in /  0.76 mm
11:24 53.3 °F /  11.8 °C 44.9 °F /  7.2 °C 29.49 in /  998.5 hPa West 10.6 mph /  17.1 km/h 26.5 mph /  42.6 km/h 73 % 0.03 in /  0.76 mm
11:30 53.2 °F /  11.8 °C 44.8 °F /  7.1 °C 29.51 in /  999.2 hPa West 11.0 mph /  17.7 km/h 18.0 mph /  29 km/h 73 % 0.03 in /  0.76 mm
11:35 53.0 °F /  11.7 °C 44.9 °F /  7.2 °C 29.51 in /  999.2 hPa WSW 8.0 mph /  12.9 km/h 31.1 mph /  50 km/h 74 % 0.03 in /  0.76 mm
11:40 53.0 °F /  11.7 °C 45.6 °F /  7.6 °C 29.51 in /  999.2 hPa West 9.0 mph /  14.5 km/h 12.0 mph /  19.3 km/h 76 % 0.03 in /  0.76 mm
11:50 53.1 °F /  11.7 °C 45.4 °F /  7.4 °C 29.52 in /  999.5 hPa SSW 7.5 mph /  12.1 km/h 12.7 mph /  20.4 km/h 75 % 0.02 in /  0.51 mm
11:55 53.2 °F /  11.8 °C 45.1 °F /  7.3 °C 29.53 in /  999.9 hPa West 8.3 mph /  13.4 km/h 21.9 mph /  35.2 km/h 74 % 0.03 in /  0.76 mm
12:00 53.2 °F /  11.8 °C 44.4 °F /  6.9 °C 29.53 in /  999.9 hPa West 10.5 mph /  16.9 km/h 22.0 mph /  35.4 km/h 72 % 0.03 in /  0.76 mm
12:05 53.4 °F /  11.9 °C 43.5 °F /  6.4 °C 29.53 in /  999.9 hPa SW 9.9 mph /  15.9 km/h 16.1 mph /  25.9 km/h 69 % 0.03 in /  0.76 mm
12:10 53.7 °F /  12.1 °C 44.9 °F /  7.2 °C 29.53 in /  999.9 hPa WSW 10.4 mph /  16.7 km/h 19.6 mph /  31.5 km/h 72 % 0.02 in /  0.51 mm
12:15 54.0 °F /  12.2 °C 44.8 °F /  7.1 °C 29.55 in /  1000.6 hPa WNW 12.9 mph /  20.8 km/h 19.6 mph /  31.5 km/h 71 % 0.02 in /  0.51 mm
12:20 54.3 °F /  12.4 °C 44.7 °F /  7.1 °C 29.54 in /  1000.2 hPa WNW 11.9 mph /  19.2 km/h 23.0 mph /  37 km/h 70 % 0.03 in /  0.76 mm
12:25 54.4 °F /  12.4 °C 44.1 °F /  6.7 °C 29.55 in /  1000.6 hPa WSW 9.7 mph /  15.6 km/h 16.1 mph /  25.9 km/h 68 % 0.03 in /  0.76 mm
12:30 54.5 °F /  12.5 °C 44.9 °F /  7.2 °C 29.56 in /  1000.9 hPa SSW 7.5 mph /  12.1 km/h 13.8 mph /  22.2 km/h 70 % 0.02 in /  0.51 mm
12:35 54.6 °F /  12.6 °C 45.4 °F /  7.4 °C 29.56 in /  1000.9 hPa SW 5.0 mph /  8 km/h 11.5 mph /  18.5 km/h 71 % 0.02 in /  0.51 mm
12:40 54.7 °F /  12.6 °C 43.6 °F /  6.4 °C 29.57 in /  1001.2 hPa WSW 10.7 mph /  17.2 km/h 20.0 mph /  32.2 km/h 66 % 0.02 in /  0.51 mm
12:45 54.8 °F /  12.7 °C 42.4 °F /  5.8 °C 29.57 in /  1001.2 hPa WNW 9.9 mph /  15.9 km/h 18.4 mph /  29.6 km/h 63 % 0.03 in /  0.76 mm
12:56 54.9 °F /  12.7 °C 42.9 °F /  6.1 °C 29.57 in /  1001.2 hPa WNW 9.0 mph /  14.5 km/h 20.0 mph /  32.2 km/h 64 % 0.00 in /  0 mm
13:01 55.1 °F /  12.8 °C 43.5 °F /  6.4 °C 29.57 in /  1001.2 hPa WNW 7.2 mph /  11.6 km/h 17.3 mph /  27.8 km/h 65 % 0.02 in /  0.51 mm
13:06 55.3 °F /  12.9 °C 44.5 °F /  6.9 °C 29.57 in /  1001.2 hPa NW 6.5 mph /  10.5 km/h 15.0 mph /  24.1 km/h 67 % 0.03 in /  0.76 mm
13:11 55.4 °F /  13 °C 43.8 °F /  6.6 °C 29.57 in /  1001.2 hPa WSW 8.4 mph /  13.5 km/h 15.0 mph /  24.1 km/h 65 % 0.03 in /  0.76 mm
13:16 55.4 °F /  13 °C 44.2 °F /  6.8 °C 29.57 in /  1001.2 hPa SSW 3.5 mph /  5.6 km/h 11.5 mph /  18.5 km/h 66 % 0.03 in /  0.76 mm
13:21 55.5 °F /  13.1 °C 43.9 °F /  6.6 °C 29.57 in /  1001.2 hPa NW 7.9 mph /  12.7 km/h 13.0 mph /  20.9 km/h 65 % 0.02 in /  0.51 mm
13:26 55.7 °F /  13.2 °C 43.7 °F /  6.5 °C 29.57 in /  1001.2 hPa WSW 10.7 mph /  17.2 km/h 18.4 mph /  29.6 km/h 64 % 0.02 in /  0.51 mm
13:31 55.8 °F /  13.2 °C 44.2 °F /  6.8 °C 29.58 in /  1001.6 hPa SSW 6.5 mph /  10.5 km/h 9.2 mph /  14.8 km/h 65 % 0.02 in /  0.51 mm
13:36 56.1 °F /  13.4 °C 44.5 °F /  6.9 °C 29.59 in /  1001.9 hPa West 6.8 mph /  10.9 km/h 17.0 mph /  27.4 km/h 65 % 0.03 in /  0.76 mm
13:41 56.5 °F /  13.6 °C 43.6 °F /  6.4 °C 29.59 in /  1001.9 hPa WNW 10.8 mph /  17.4 km/h 26.5 mph /  42.6 km/h 62 % 0.03 in /  0.76 mm
13:46 56.9 °F /  13.8 °C 43.6 °F /  6.4 °C 29.59 in /  1001.9 hPa WSW 8.2 mph /  13.2 km/h 16.1 mph /  25.9 km/h 61 % 0.02 in /  0.51 mm
13:51 57.3 °F /  14.1 °C 44.0 °F /  6.7 °C 29.60 in /  1002.3 hPa WNW 9.1 mph /  14.6 km/h 19.6 mph /  31.5 km/h 61 % 0.02 in /  0.51 mm
13:56 57.6 °F /  14.2 °C 44.2 °F /  6.8 °C 29.60 in /  1002.3 hPa WSW 4.9 mph /  7.9 km/h 8.1 mph /  13 km/h 61 % 0.03 in /  0.76 mm
14:01 57.9 °F /  14.4 °C 44.5 °F /  6.9 °C 29.60 in /  1002.3 hPa WSW 7.8 mph /  12.6 km/h 10.4 mph /  16.7 km/h 61 % 0.03 in /  0.76 mm
14:06 58.2 °F /  14.6 °C 44.8 °F /  7.1 °C 29.61 in /  1002.6 hPa WSW 5.3 mph /  8.5 km/h 12.7 mph /  20.4 km/h 61 % 0.02 in /  0.51 mm
14:12 58.4 °F /  14.7 °C 45.4 °F /  7.4 °C 29.61 in /  1002.6 hPa NW 6.9 mph /  11.1 km/h 13.0 mph /  20.9 km/h 62 % 0.02 in /  0.51 mm
14:17 58.6 °F /  14.8 °C 45.2 °F /  7.3 °C 29.62 in /  1002.9 hPa SW 8.4 mph /  13.5 km/h 12.0 mph /  19.3 km/h 61 % 0.02 in /  0.51 mm
14:22 58.6 °F /  14.8 °C 44.3 °F /  6.8 °C 29.62 in /  1002.9 hPa SW 7.7 mph /  12.4 km/h 16.1 mph /  25.9 km/h 59 % 0.03 in /  0.76 mm
14:27 58.5 °F /  14.7 °C 44.7 °F /  7.1 °C 29.63 in /  1003.3 hPa SW 4.8 mph /  7.7 km/h 13.8 mph /  22.2 km/h 60 % 0.03 in /  0.76 mm
14:32 58.5 °F /  14.7 °C 43.3 °F /  6.3 °C 29.63 in /  1003.3 hPa SW 10.5 mph /  16.9 km/h 25.3 mph /  40.7 km/h 57 % 0.02 in /  0.51 mm
14:37 58.4 °F /  14.7 °C 44.1 °F /  6.7 °C 29.63 in /  1003.3 hPa WNW 8.4 mph /  13.5 km/h 15.0 mph /  24.1 km/h 59 % 0.02 in /  0.51 mm
14:42 58.5 °F /  14.7 °C 45.1 °F /  7.3 °C 29.63 in /  1003.3 hPa West 5.6 mph /  9 km/h 13.0 mph /  20.9 km/h 61 % 0.03 in /  0.76 mm
14:47 58.5 °F /  14.7 °C 44.2 °F /  6.8 °C 29.63 in /  1003.3 hPa SW 7.5 mph /  12.1 km/h 12.7 mph /  20.4 km/h 59 % 0.03 in /  0.76 mm
14:52 58.4 °F /  14.7 °C 43.7 °F /  6.5 °C 29.64 in /  1003.6 hPa SSW 7.2 mph /  11.6 km/h 19.6 mph /  31.5 km/h 58 % 0.03 in /  0.76 mm
15:02 58.3 °F /  14.6 °C 43.6 °F /  6.4 °C 29.65 in /  1003.9 hPa SW 7.0 mph /  11.3 km/h 15.0 mph /  24.1 km/h 58 % 0.03 in /  0.76 mm
15:07 58.2 °F /  14.6 °C 43.5 °F /  6.4 °C 29.66 in /  1004.3 hPa WSW 8.2 mph /  13.2 km/h 16.1 mph /  25.9 km/h 58 % 0.03 in /  0.76 mm
15:10 58.1 °F /  14.5 °C 43.8 °F /  6.6 °C 29.66 in /  1004.3 hPa SW 8.2 mph /  13.2 km/h 18.4 mph /  29.6 km/h 59 % 0.03 in /  0.76 mm
15:15 57.8 °F /  14.3 °C 42.7 °F /  5.9 °C 29.66 in /  1004.3 hPa WSW 11.0 mph /  17.7 km/h 20.0 mph /  32.2 km/h 57 % 0.03 in /  0.76 mm
15:20 57.5 °F /  14.2 °C 42.8 °F /  6 °C 29.67 in /  1004.6 hPa NW 6.0 mph /  9.7 km/h 17.3 mph /  27.8 km/h 58 % 0.02 in /  0.51 mm
15:25 57.3 °F /  14.1 °C 42.2 °F /  5.7 °C 29.67 in /  1004.6 hPa SSW 7.8 mph /  12.6 km/h 13.8 mph /  22.2 km/h 57 % 0.03 in /  0.76 mm
15:30 57.0 °F /  13.9 °C 42.4 °F /  5.8 °C 29.67 in /  1004.6 hPa WSW 6.5 mph /  10.5 km/h 11.5 mph /  18.5 km/h 58 % 0.03 in /  0.76 mm
15:35 56.7 °F /  13.7 °C 42.1 °F /  5.6 °C 29.68 in /  1005 hPa WNW 9.0 mph /  14.5 km/h 17.3 mph /  27.8 km/h 58 % 0.03 in /  0.76 mm
15:40 56.5 °F /  13.6 °C 42.3 °F /  5.7 °C 29.69 in /  1005.3 hPa WSW 3.8 mph /  6.1 km/h 13.8 mph /  22.2 km/h 59 % 0.02 in /  0.51 mm
15:45 56.3 °F /  13.5 °C 42.1 °F /  5.6 °C 29.69 in /  1005.3 hPa WSW 5.5 mph /  8.9 km/h 11.5 mph /  18.5 km/h 59 % 0.02 in /  0.51 mm
15:51 56.1 °F /  13.4 °C 42.0 °F /  5.6 °C 29.68 in /  1005 hPa NW 8.1 mph /  13 km/h 18.4 mph /  29.6 km/h 59 % 0.02 in /  0.51 mm
15:56 55.9 °F /  13.3 °C 41.8 °F /  5.4 °C 29.68 in /  1005 hPa WSW 3.0 mph /  4.8 km/h 12.0 mph /  19.3 km/h 59 % 0.00 in /  0 mm
16:01 55.8 °F /  13.2 °C 42.1 °F /  5.6 °C 29.69 in /  1005.3 hPa SSW 8.0 mph /  12.9 km/h 13.8 mph /  22.2 km/h 60 % 0.02 in /  0.51 mm
16:06 55.7 °F /  13.2 °C 41.6 °F /  5.3 °C 29.69 in /  1005.3 hPa WNW 6.2 mph /  10 km/h 12.7 mph /  20.4 km/h 59 % 0.02 in /  0.51 mm
16:11 55.5 °F /  13.1 °C 41.4 °F /  5.2 °C 29.70 in /  1005.6 hPa WSW 8.3 mph /  13.4 km/h 17.3 mph /  27.8 km/h 59 % 0.02 in /  0.51 mm
16:16 55.4 °F /  13 °C 41.7 °F /  5.4 °C 29.71 in /  1006 hPa SSW 3.1 mph /  5 km/h 4.6 mph /  7.4 km/h 60 % 0.02 in /  0.51 mm
16:21 55.3 °F /  12.9 °C 41.6 °F /  5.3 °C 29.71 in /  1006 hPa SW 4.8 mph /  7.7 km/h 11.5 mph /  18.5 km/h 60 % 0.03 in /  0.76 mm
16:26 55.1 °F /  12.8 °C 41.5 °F /  5.3 °C 29.70 in /  1005.6 hPa WSW 4.9 mph /  7.9 km/h 11.5 mph /  18.5 km/h 60 % 0.02 in /  0.51 mm
16:31 55.0 °F /  12.8 °C 42.2 °F /  5.7 °C 29.71 in /  1006 hPa WSW 5.5 mph /  8.9 km/h 10.0 mph /  16.1 km/h 62 % 0.02 in /  0.51 mm
16:36 54.9 °F /  12.7 °C 41.7 °F /  5.4 °C 29.71 in /  1006 hPa SSW 5.6 mph /  9 km/h 11.5 mph /  18.5 km/h 61 % 0.02 in /  0.51 mm
16:41 54.8 °F /  12.7 °C 41.6 °F /  5.3 °C 29.72 in /  1006.3 hPa SW 6.8 mph /  10.9 km/h 9.2 mph /  14.8 km/h 61 % 0.03 in /  0.76 mm
16:46 54.6 °F /  12.6 °C 40.6 °F /  4.8 °C 29.72 in /  1006.3 hPa SW 4.4 mph /  7.1 km/h 13.8 mph /  22.2 km/h 59 % 0.03 in /  0.76 mm
16:51 54.5 °F /  12.5 °C 40.0 °F /  4.4 °C 29.72 in /  1006.3 hPa WSW 3.6 mph /  5.8 km/h 8.1 mph /  13 km/h 58 % 0.02 in /  0.51 mm
16:56 54.4 °F /  12.4 °C 40.4 °F /  4.7 °C 29.72 in /  1006.3 hPa SSW 5.6 mph /  9 km/h 9.2 mph /  14.8 km/h 59 % 0.02 in /  0.51 mm
17:01 54.3 °F /  12.4 °C 40.7 °F /  4.8 °C 29.73 in /  1006.7 hPa SW 5.5 mph /  8.9 km/h 8.1 mph /  13 km/h 60 % 0.02 in /  0.51 mm
17:06 54.2 °F /  12.3 °C 40.2 °F /  4.6 °C 29.73 in /  1006.7 hPa SW 6.6 mph /  10.6 km/h 12.0 mph /  19.3 km/h 59 % 0.03 in /  0.76 mm
17:12 54.1 °F /  12.3 °C 40.5 °F /  4.7 °C 29.73 in /  1006.7 hPa WSW 3.4 mph /  5.5 km/h 4.0 mph /  6.4 km/h 60 % 0.03 in /  0.76 mm
17:17 54.0 °F /  12.2 °C 40.4 °F /  4.7 °C 29.74 in /  1007 hPa WSW 6.1 mph /  9.8 km/h 13.0 mph /  20.9 km/h 60 % 0.03 in /  0.76 mm
17:22 53.9 °F /  12.2 °C 40.3 °F /  4.6 °C 29.74 in /  1007 hPa SSW 6.0 mph /  9.7 km/h 10.0 mph /  16.1 km/h 60 % 0.02 in /  0.51 mm
17:27 53.8 °F /  12.1 °C 40.7 °F /  4.8 °C 29.74 in /  1007 hPa NW 4.5 mph /  7.2 km/h 13.0 mph /  20.9 km/h 61 % 0.02 in /  0.51 mm
17:32 53.7 °F /  12.1 °C 41.0 °F /  5 °C 29.74 in /  1007 hPa SSW 3.2 mph /  5.1 km/h 5.0 mph /  8 km/h 62 % 0.03 in /  0.76 mm
17:37 53.6 °F /  12 °C 40.9 °F /  4.9 °C 29.74 in /  1007 hPa SSW 3.6 mph /  5.8 km/h 6.9 mph /  11.1 km/h 62 % 0.03 in /  0.76 mm
17:42 53.4 °F /  11.9 °C 40.7 °F /  4.8 °C 29.75 in /  1007.3 hPa WSW 4.2 mph /  6.8 km/h 8.1 mph /  13 km/h 62 % 0.02 in /  0.51 mm
17:47 53.3 °F /  11.8 °C 40.6 °F /  4.8 °C 29.75 in /  1007.3 hPa WSW 3.1 mph /  5 km/h 6.9 mph /  11.1 km/h 62 % 0.02 in /  0.51 mm
17:52 53.2 °F /  11.8 °C 40.5 °F /  4.7 °C 29.75 in /  1007.3 hPa SW 3.0 mph /  4.8 km/h 6.9 mph /  11.1 km/h 62 % 0.02 in /  0.51 mm
18:07 52.8 °F /  11.6 °C 41.0 °F /  5 °C 29.76 in /  1007.7 hPa SSW 2.3 mph /  3.7 km/h 3.5 mph /  5.6 km/h 64 % 0.02 in /  0.51 mm
18:12 52.7 °F /  11.5 °C 41.3 °F /  5.2 °C 29.77 in /  1008 hPa SSW 0.4 mph /  0.6 km/h 3.5 mph /  5.6 km/h 65 % 0.02 in /  0.51 mm
18:17 52.5 °F /  11.4 °C 41.5 °F /  5.3 °C 29.77 in /  1008 hPa West 4.7 mph /  7.6 km/h 5.0 mph /  8 km/h 66 % 0.02 in /  0.51 mm
18:23 52.3 °F /  11.3 °C 40.5 °F /  4.7 °C 29.78 in /  1008.4 hPa SW 2.5 mph /  4 km/h 6.9 mph /  11.1 km/h 64 % 0.02 in /  0.51 mm
18:28 52.2 °F /  11.2 °C 40.8 °F /  4.9 °C 29.78 in /  1008.4 hPa WSW 2.7 mph /  4.3 km/h 6.9 mph /  11.1 km/h 65 % 0.02 in /  0.51 mm
18:33 52.1 °F /  11.2 °C 40.7 °F /  4.8 °C 29.78 in /  1008.4 hPa SSW 3.7 mph /  6 km/h 7.0 mph /  11.3 km/h 65 % 0.02 in /  0.51 mm
18:38 52.0 °F /  11.1 °C 41.4 °F /  5.2 °C 29.78 in /  1008.4 hPa SSW 0.6 mph /  1 km/h 3.5 mph /  5.6 km/h 67 % 0.02 in /  0.51 mm
18:43 51.9 °F /  11.1 °C 41.3 °F /  5.2 °C 29.78 in /  1008.4 hPa SSW 4.1 mph /  6.6 km/h 5.8 mph /  9.3 km/h 67 % 0.02 in /  0.51 mm
18:48 51.8 °F /  11 °C 40.8 °F /  4.9 °C 29.78 in /  1008.4 hPa WSW 3.9 mph /  6.3 km/h 6.9 mph /  11.1 km/h 66 % 0.02 in /  0.51 mm
18:53 51.6 °F /  10.9 °C 40.6 °F /  4.8 °C 29.78 in /  1008.4 hPa WSW 4.9 mph /  7.9 km/h 11.5 mph /  18.5 km/h 66 % 0.02 in /  0.51 mm
18:58 51.5 °F /  10.8 °C 40.5 °F /  4.7 °C 29.79 in /  1008.7 hPa SSW 3.8 mph /  6.1 km/h 6.9 mph /  11.1 km/h 66 % 0.01 in /  0.25 mm
19:03 51.4 °F /  10.8 °C 40.8 °F /  4.9 °C 29.79 in /  1008.7 hPa WSW 4.2 mph /  6.8 km/h 5.8 mph /  9.3 km/h 67 % 0.02 in /  0.51 mm
19:08 51.4 °F /  10.8 °C 41.2 °F /  5.1 °C 29.79 in /  1008.7 hPa WSW 1.8 mph /  2.9 km/h 3.5 mph /  5.6 km/h 68 % 0.02 in /  0.51 mm
19:11 51.4 °F /  10.8 °C 41.2 °F /  5.1 °C 29.79 in /  1008.7 hPa WSW 1.1 mph /  1.8 km/h 3.5 mph /  5.6 km/h 68 % 0.02 in /  0.51 mm
19:16 51.3 °F /  10.7 °C 41.1 °F /  5.1 °C 29.80 in /  1009 hPa West 0.9 mph /  1.4 km/h 3.5 mph /  5.6 km/h 68 % 0.02 in /  0.51 mm
19:21 51.1 °F /  10.6 °C 40.9 °F /  4.9 °C 29.81 in /  1009.4 hPa SW 1.8 mph /  2.9 km/h 5.0 mph /  8 km/h 68 % 0.02 in /  0.51 mm
19:26 51.0 °F /  10.6 °C 40.8 °F /  4.9 °C 29.81 in /  1009.4 hPa WSW 1.5 mph /  2.4 km/h 4.6 mph /  7.4 km/h 68 % 0.02 in /  0.51 mm
19:31 50.8 °F /  10.4 °C 41.0 °F /  5 °C 29.81 in /  1009.4 hPa SSW 1.5 mph /  2.4 km/h 3.5 mph /  5.6 km/h 69 % 0.01 in /  0.25 mm
19:36 50.8 °F /  10.4 °C 41.0 °F /  5 °C 29.81 in /  1009.4 hPa SW 0.1 mph /  0.2 km/h 1.2 mph /  1.9 km/h 69 % 0.01 in /  0.25 mm
19:41 50.6 °F /  10.3 °C 41.5 °F /  5.3 °C 29.82 in /  1009.7 hPa West 0.7 mph /  1.1 km/h 1.0 mph /  1.6 km/h 71 % 0.01 in /  0.25 mm
19:46 50.5 °F /  10.3 °C 41.4 °F /  5.2 °C 29.81 in /  1009.4 hPa West 0.1 mph /  0.2 km/h 1.2 mph /  1.9 km/h 71 % 0.02 in /  0.51 mm
19:51 50.4 °F /  10.2 °C 41.3 °F /  5.2 °C 29.82 in /  1009.7 hPa SSW 0.7 mph /  1.1 km/h 1.2 mph /  1.9 km/h 71 % 0.02 in /  0.51 mm
19:56 50.1 °F /  10.1 °C 41.1 °F /  5.1 °C 29.82 in /  1009.7 hPa SSW 1.5 mph /  2.4 km/h 2.3 mph /  3.7 km/h 71 % 0.02 in /  0.51 mm
20:01 50.0 °F /  10 °C 41.0 °F /  5 °C 29.80 in /  1009 hPa SSW 0.3 mph /  0.5 km/h 1.2 mph /  1.9 km/h 71 % 0.02 in /  0.51 mm
20:07 49.7 °F /  9.8 °C 40.7 °F /  4.8 °C 29.83 in /  1010 hPa SSW 0.1 mph /  0.2 km/h 2.3 mph /  3.7 km/h 71 % 0.01 in /  0.25 mm
20:12 49.5 °F /  9.7 °C 40.1 °F /  4.5 °C 29.82 in /  1009.7 hPa SW 0.6 mph /  1 km/h 8.1 mph /  13 km/h 70 % 0.01 in /  0.25 mm
20:17 49.4 °F /  9.7 °C 40.0 °F /  4.4 °C 29.82 in /  1009.7 hPa SSW 4.3 mph /  6.9 km/h 10.0 mph /  16.1 km/h 70 % 0.01 in /  0.25 mm
20:22 49.4 °F /  9.7 °C 40.0 °F /  4.4 °C 29.83 in /  1010 hPa WSW 1.4 mph /  2.3 km/h 4.6 mph /  7.4 km/h 70 % 0.01 in /  0.25 mm
20:27 49.4 °F /  9.7 °C 40.0 °F /  4.4 °C 29.83 in /  1010 hPa South 4.7 mph /  7.6 km/h 9.2 mph /  14.8 km/h 70 % 0.01 in /  0.25 mm
20:32 49.6 °F /  9.8 °C 39.8 °F /  4.3 °C 29.83 in /  1010 hPa WSW 3.8 mph /  6.1 km/h 6.9 mph /  11.1 km/h 69 % 0.02 in /  0.51 mm
20:37 49.7 °F /  9.8 °C 39.9 °F /  4.4 °C 29.83 in /  1010 hPa SW 1.1 mph /  1.8 km/h 3.0 mph /  4.8 km/h 69 % 0.02 in /  0.51 mm
20:42 49.8 °F /  9.9 °C 40.0 °F /  4.4 °C 29.83 in /  1010 hPa SSW 2.6 mph /  4.2 km/h 3.5 mph /  5.6 km/h 69 % 0.02 in /  0.51 mm
20:47 49.9 °F /  9.9 °C 40.1 °F /  4.5 °C 29.84 in /  1010.4 hPa SW 2.8 mph /  4.5 km/h 6.9 mph /  11.1 km/h 69 % 0.01 in /  0.25 mm
20:48 49.9 °F /  9.9 °C 40.1 °F /  4.5 °C 29.83 in /  1010 hPa West 2.8 mph /  4.5 km/h 5.8 mph /  9.3 km/h 69 % 0.01 in /  0.25 mm
20:53 50.1 °F /  10.1 °C 40.3 °F /  4.6 °C 29.83 in /  1010 hPa SSW 0.6 mph /  1 km/h 3.5 mph /  5.6 km/h 69 % 0.01 in /  0.25 mm
20:58 50.1 °F /  10.1 °C 40.3 °F /  4.6 °C 29.84 in /  1010.4 hPa SSE 2.1 mph /  3.4 km/h 3.5 mph /  5.6 km/h 69 % 0.01 in /  0.25 mm
21:04 50.2 °F /  10.1 °C 40.4 °F /  4.7 °C 29.84 in /  1010.4 hPa SSW 0.1 mph /  0.2 km/h 3.5 mph /  5.6 km/h 69 % 0.01 in /  0.25 mm
21:09 50.3 °F /  10.2 °C 40.9 °F /  4.9 °C 29.84 in /  1010.4 hPa WSW 1.9 mph /  3.1 km/h 6.9 mph /  11.1 km/h 70 % 0.01 in /  0.25 mm
21:14 50.3 °F /  10.2 °C 40.1 °F /  4.5 °C 29.85 in /  1010.7 hPa SW 0.5 mph /  0.8 km/h 5.8 mph /  9.3 km/h 68 % 0.01 in /  0.25 mm
21:29 50.4 °F /  10.2 °C 41.0 °F /  5 °C 29.85 in /  1010.7 hPa SSW 3.1 mph /  5 km/h 8.1 mph /  13 km/h 70 % 0.01 in /  0.25 mm
21:39 50.4 °F /  10.2 °C 41.0 °F /  5 °C 29.85 in /  1010.7 hPa SW 1.0 mph /  1.6 km/h 9.2 mph /  14.8 km/h 70 % 0.01 in /  0.25 mm
21:44 50.5 °F /  10.3 °C 41.1 °F /  5.1 °C 29.85 in /  1010.7 hPa SW 0.4 mph /  0.6 km/h 2.3 mph /  3.7 km/h 70 % 0.01 in /  0.25 mm
21:49 50.4 °F /  10.2 °C 41.0 °F /  5 °C 29.85 in /  1010.7 hPa SW 2.2 mph /  3.5 km/h 5.8 mph /  9.3 km/h 70 % 0.01 in /  0.25 mm
21:54 50.4 °F /  10.2 °C 41.0 °F /  5 °C 29.85 in /  1010.7 hPa SSW 1.6 mph /  2.6 km/h 7.0 mph /  11.3 km/h 70 % 0.01 in /  0.25 mm
21:59 50.4 °F /  10.2 °C 41.0 °F /  5 °C 29.86 in /  1011.1 hPa SSW 2.9 mph /  4.7 km/h 3.5 mph /  5.6 km/h 70 % 0.01 in /  0.25 mm
22:04 50.5 °F /  10.3 °C 41.1 °F /  5.1 °C 29.86 in /  1011.1 hPa SW 3.0 mph /  4.8 km/h 4.6 mph /  7.4 km/h 70 % 0.01 in /  0.25 mm
22:09 50.6 °F /  10.3 °C 40.8 °F /  4.9 °C 29.87 in /  1011.4 hPa SSW 5.5 mph /  8.9 km/h 11.5 mph /  18.5 km/h 69 % 0.01 in /  0.25 mm
22:14 50.7 °F /  10.4 °C 40.9 °F /  4.9 °C 29.87 in /  1011.4 hPa SW 8.1 mph /  13 km/h 12.7 mph /  20.4 km/h 69 % 0.02 in /  0.51 mm
22:20 50.8 °F /  10.4 °C 41.0 °F /  5 °C 29.87 in /  1011.4 hPa SSW 4.2 mph /  6.8 km/h 15.0 mph /  24.1 km/h 69 % 0.02 in /  0.51 mm
22:25 51.0 °F /  10.6 °C 40.4 °F /  4.7 °C 29.87 in /  1011.4 hPa SSW 2.9 mph /  4.7 km/h 16.1 mph /  25.9 km/h 67 % 0.01 in /  0.25 mm
22:27 51.0 °F /  10.6 °C 40.8 °F /  4.9 °C 29.86 in /  1011.1 hPa SSW 0.8 mph /  1.3 km/h 3.5 mph /  5.6 km/h 68 % 0.01 in /  0.25 mm
22:32 51.1 °F /  10.6 °C 40.9 °F /  4.9 °C 29.87 in /  1011.4 hPa SSW 3.7 mph /  6 km/h 6.9 mph /  11.1 km/h 68 % 0.01 in /  0.25 mm
22:37 51.2 °F /  10.7 °C 41.0 °F /  5 °C 29.86 in /  1011.1 hPa WSW 5.0 mph /  8 km/h 8.1 mph /  13 km/h 68 % 0.01 in /  0.25 mm
22:42 51.2 °F /  10.7 °C 41.0 °F /  5 °C 29.87 in /  1011.4 hPa SSW 3.4 mph /  5.5 km/h 8.1 mph /  13 km/h 68 % 0.01 in /  0.25 mm
22:47 51.2 °F /  10.7 °C 41.0 °F /  5 °C 29.87 in /  1011.4 hPa SSW 3.4 mph /  5.5 km/h 6.9 mph /  11.1 km/h 68 % 0.01 in /  0.25 mm
22:52 51.3 °F /  10.7 °C 41.1 °F /  5.1 °C 29.87 in /  1011.4 hPa WSW 0.8 mph /  1.3 km/h 3.5 mph /  5.6 km/h 68 % 0.01 in /  0.25 mm
22:57 51.2 °F /  10.7 °C 40.6 °F /  4.8 °C 29.87 in /  1011.4 hPa SW 3.0 mph /  4.8 km/h 8.1 mph /  13 km/h 67 % 0.01 in /  0.25 mm
23:02 51.2 °F /  10.7 °C 40.6 °F /  4.8 °C 29.87 in /  1011.4 hPa SW 2.9 mph /  4.7 km/h 4.6 mph /  7.4 km/h 67 % 0.01 in /  0.25 mm
23:07 51.2 °F /  10.7 °C 40.6 °F /  4.8 °C 29.87 in /  1011.4 hPa WSW 2.3 mph /  3.7 km/h 5.0 mph /  8 km/h 67 % 0.01 in /  0.25 mm
23:13 51.2 °F /  10.7 °C 40.6 °F /  4.8 °C 29.88 in /  1011.7 hPa SW 1.8 mph /  2.9 km/h 5.8 mph /  9.3 km/h 67 % 0.00 in /  0 mm
23:22 51.1 °F /  10.6 °C 40.1 °F /  4.5 °C 29.88 in /  1011.7 hPa West 3.3 mph /  5.3 km/h 12.0 mph /  19.3 km/h 66 % 0.01 in /  0.25 mm
23:25 51.1 °F /  10.6 °C 40.5 °F /  4.7 °C 29.88 in /  1011.7 hPa WSW 2.1 mph /  3.4 km/h 5.8 mph /  9.3 km/h 67 % 0.01 in /  0.25 mm
23:28 51.0 °F /  10.6 °C 40.4 °F /  4.7 °C 29.64 in /  1003.6 hPa WSW 3.6 mph /  5.8 km/h 5.0 mph /  8 km/h 67 % 0.01 in /  0.25 mm
23:29 51.0 °F /  10.6 °C 40.4 °F /  4.7 °C 29.88 in /  1011.7 hPa WSW 3.7 mph /  6 km/h 7.0 mph /  11.3 km/h 67 % 0.01 in /  0.25 mm
23:30 51.0 °F /  10.6 °C 40.4 °F /  4.7 °C 29.88 in /  1011.7 hPa SW 2.9 mph /  4.7 km/h 11.5 mph /  18.5 km/h 67 % 0.01 in /  0.25 mm
23:35 51.0 °F /  10.6 °C 39.6 °F /  4.2 °C 29.88 in /  1011.7 hPa SW 4.2 mph /  6.8 km/h 8.1 mph /  13 km/h 65 % 0.01 in /  0.25 mm
23:36 51.0 °F /  10.6 °C 40.0 °F /  4.4 °C 29.88 in /  1011.7 hPa WSW 1.4 mph /  2.3 km/h 3.5 mph /  5.6 km/h 66 % 0.01 in /  0.25 mm
23:41 51.0 °F /  10.6 °C 40.0 °F /  4.4 °C 29.89 in /  1012.1 hPa WSW 0.7 mph /  1.1 km/h 3.5 mph /  5.6 km/h 66 % 0.01 in /  0.25 mm
23:46 51.0 °F /  10.6 °C 40.0 °F /  4.4 °C 29.89 in /  1012.1 hPa WSW 4.6 mph /  7.4 km/h 8.0 mph /  12.9 km/h 66 % 0.01 in /  0.25 mm
23:51 51.0 °F /  10.6 °C 40.0 °F /  4.4 °C 29.89 in /  1012.1 hPa SSW 2.5 mph /  4 km/h 4.6 mph /  7.4 km/h 66 % 0.01 in /  0.25 mm
23:56 51.0 °F /  10.6 °C 39.6 °F /  4.2 °C 29.89 in /  1012.1 hPa SW 2.2 mph /  3.5 km/h 11.5 mph /  18.5 km/h 65 % 0.01 in /  0.25 mm
Crab Meadow Weather
Compliments of Weather Underground - 3 mb

Script developed by  Jim McMurry - jmcmurry@mwt.net Adapted for the template by  Wim van der Kuil - Leuven-Template.eu

Astronomy: The rings of Saturn are made of ice and rock.